Weather History for Venice, FL

Change the Weather History Date:

Sunday, February 17, 2013

  Actual Average Record
Temperature  
Mean Temperature 49 °F -  
Max Temperature 57 °F 74 °F 83 °F (1989)
Min Temperature 41 °F 54 °F 36 °F (1958)
Degree Days  
Heating Degree Days 16    
Moisture  
Dew Point 25 °F    
Average Humidity 41    
Maximum Humidity 70    
Minimum Humidity 21    
Precipitation  
Precipitation 0.00 in - - ()
Sea Level Pressure  
Sea Level Pressure 30.28 in    
Wind  
Wind Speed 13 mph (North)    
Max Wind Speed 18 mph    
Max Gust Speed 30 mph    
Visibility 10 miles    
Events      
Averages and records for this station are not official NWS values.
T = Trace of Precipitation, MM = Missing Value Source: NWS Daily Summary

Daily Weather History Graph

Daily Weather History Graph

Search for Another Location

Airport:

Trip Planner

Search our weather history database for the weather conditions in past years. The results will help you decide how hot, cold, wet, or windy it might be!

Date:

Astronomy

Feb. 17, 2013 Rise Set
Actual Time 7:04 AM EST 6:23 PM EST
Civil Twilight 6:40 AM EST 6:47 PM EST
Nautical Twilight 6:13 AM EST 7:14 PM EST
Astronomical Twilight 5:46 AM EST 7:41 PM EST
Moon 11:39 AM EST (2/17) 12:36 AM EST (2/17)
Length of Visible Light 12h 06m
Length of Day
11h 18m
Waxing Crescent, 49% of the Moon is Illuminated
Feb 17
Waxing Crescent
Feb 17
First Quarter
Feb 25
Full
Mar 4
Last Quarter
Mar 11
New

Hourly Weather History & Observations

Time (EST) Temp. Windchill Dew Point Humidity Pressure Visibility Wind Dir Wind Speed Gust Speed Precip Events Conditions
12:15 AM 57.2 °F - 39.2 °F 51% 30.14 in 10.0 mi NNW 18.4 mph 29.9 mph N/A   Overcast
12:35 AM 57.2 °F - 37.4 °F 48% 30.14 in 10.0 mi NNW 17.3 mph 25.3 mph N/A   Overcast
12:55 AM 57.2 °F - 37.4 °F 48% 30.14 in 10.0 mi NNW 17.3 mph 28.8 mph N/A   Overcast
1:15 AM 55.4 °F - 37.4 °F 51% 30.15 in 10.0 mi North 16.1 mph 26.5 mph N/A   Overcast
1:35 AM 55.4 °F - 35.6 °F 47% 30.16 in 10.0 mi North 13.8 mph 21.9 mph N/A   Mostly Cloudy
1:55 AM 53.6 °F - 35.6 °F 51% 30.17 in 10.0 mi North 13.8 mph 21.9 mph N/A   Mostly Cloudy
2:15 AM 53.6 °F - 33.8 °F 47% 30.17 in 10.0 mi North 11.5 mph 26.5 mph N/A   Mostly Cloudy
2:35 AM 50.0 °F - 33.8 °F 54% 30.18 in 10.0 mi NNE 15.0 mph 24.2 mph N/A   Overcast
2:55 AM 50.0 °F - 32.0 °F 50% 30.18 in 10.0 mi NNE 16.1 mph 21.9 mph N/A   Overcast
3:15 AM 48.2 °F - 28.4 °F 46% 30.18 in 10.0 mi NNE 16.1 mph 24.2 mph N/A   Overcast
3:35 AM 46.4 °F 39.8 °F 28.4 °F 50% 30.19 in 10.0 mi NE 16.1 mph 19.6 mph N/A   Overcast
3:55 AM 46.4 °F 40.7 °F 26.6 °F 46% 30.19 in 10.0 mi NNE 12.7 mph 17.3 mph N/A   Mostly Cloudy
4:15 AM 44.6 °F 38.1 °F 23.0 °F 43% 30.20 in 10.0 mi NE 13.8 mph 20.7 mph N/A   Mostly Cloudy
4:35 AM 44.6 °F 38.4 °F 19.4 °F 37% 30.21 in 10.0 mi NE 12.7 mph 20.7 mph N/A   Scattered Clouds
4:55 AM 42.8 °F 36.2 °F 19.4 °F 39% 30.21 in 10.0 mi NE 12.7 mph 19.6 mph N/A   Partly Cloudy
5:15 AM 42.8 °F 35.8 °F 17.6 °F 36% 30.22 in 10.0 mi NE 13.8 mph - N/A   Partly Cloudy
5:35 AM 42.8 °F 36.6 °F 17.6 °F 36% 30.23 in 10.0 mi NE 11.5 mph - N/A   Partly Cloudy
5:55 AM 41.0 °F 33.5 °F 19.4 °F 42% 30.24 in 10.0 mi NE 13.8 mph - N/A   Partly Cloudy
6:15 AM 41.0 °F 33.1 °F 17.6 °F 39% 30.25 in 10.0 mi NNE 15.0 mph - N/A   Partly Cloudy
6:35 AM 41.0 °F 33.5 °F 17.6 °F 39% 30.26 in 10.0 mi NE 13.8 mph - N/A   Clear
6:55 AM 41.0 °F 34.3 °F 19.4 °F 42% 30.26 in 10.0 mi NNE 11.5 mph - N/A   Partly Cloudy
7:15 AM 41.0 °F 34.7 °F 19.4 °F 42% 30.28 in 10.0 mi NNE 10.4 mph - N/A   Clear
7:35 AM 41.0 °F 34.3 °F 19.4 °F 42% 30.28 in 10.0 mi NE 11.5 mph - N/A   Clear
7:55 AM 41.0 °F 33.9 °F 19.4 °F 42% 30.29 in 10.0 mi NE 12.7 mph 18.4 mph N/A   Clear
8:15 AM 42.8 °F 35.4 °F 19.4 °F 39% 30.30 in 10.0 mi NE 15.0 mph 20.7 mph N/A   Clear
8:35 AM 44.6 °F 38.1 °F 19.4 °F 37% 30.31 in 10.0 mi NE 13.8 mph 20.7 mph N/A   Clear
8:55 AM 44.6 °F 38.1 °F 17.6 °F 34% 30.32 in 10.0 mi NNE 13.8 mph 21.9 mph N/A   Clear
9:15 AM 46.4 °F 40.4 °F 17.6 °F 32% 30.32 in 10.0 mi NNE 13.8 mph - N/A   Clear
9:35 AM 46.4 °F 39.8 °F 17.6 °F 32% 30.33 in 10.0 mi NNE 16.1 mph 23.0 mph N/A   Clear
9:55 AM 48.2 °F - 19.4 °F 32% 30.33 in 10.0 mi NE 18.4 mph 23.0 mph N/A   Clear
10:15 AM 48.2 °F - 19.4 °F 32% 30.33 in 10.0 mi NNE 17.3 mph - N/A   Clear
10:35 AM 50.0 °F - 21.2 °F 32% 30.34 in 10.0 mi NNE 16.1 mph 21.9 mph N/A   Clear
10:55 AM 50.0 °F - 21.2 °F 32% 30.34 in 10.0 mi NNE 12.7 mph 19.6 mph N/A   Clear
11:15 AM 50.0 °F - 23.0 °F 35% 30.35 in 10.0 mi North 11.5 mph 20.7 mph N/A   Unknown
11:35 AM 50.0 °F - 24.8 °F 37% 30.34 in 10.0 mi NNE 13.8 mph 19.6 mph N/A   Clear
11:55 AM 53.6 °F - 26.6 °F 35% 30.34 in 10.0 mi North 11.5 mph 19.6 mph N/A   Clear
12:15 PM 53.6 °F - 26.6 °F 35% 30.34 in 10.0 mi North 12.7 mph 19.6 mph N/A   Clear
12:35 PM 53.6 °F - 26.6 °F 35% 30.33 in 10.0 mi NNW 11.5 mph 18.4 mph N/A   Clear
12:55 PM 53.6 °F - 28.4 °F 38% 30.32 in 10.0 mi NNW 15.0 mph 25.3 mph N/A   Unknown
1:15 PM 53.6 °F - 23.0 °F 30% 30.32 in 10.0 mi NNW 11.5 mph 20.7 mph N/A   Unknown
1:35 PM 53.6 °F - 28.4 °F 38% 30.31 in 10.0 mi North 9.2 mph 21.9 mph N/A   Unknown
1:55 PM 53.6 °F - 24.8 °F 33% 30.30 in 10.0 mi NW 9.2 mph - N/A   Unknown
2:15 PM 53.6 °F - 19.4 °F 26% 30.29 in 10.0 mi North 10.4 mph 18.4 mph N/A   Unknown
2:35 PM 53.6 °F - 28.4 °F 38% 30.29 in 10.0 mi NNW 13.8 mph 19.6 mph N/A   Unknown
2:55 PM 53.6 °F - 28.4 °F 38% 30.29 in 10.0 mi NW 16.1 mph 20.7 mph N/A   Clear
3:15 PM 53.6 °F - 30.2 °F 41% 30.29 in 10.0 mi NW 17.3 mph 23.0 mph N/A   Clear
3:35 PM 53.6 °F - 32.0 °F 44% 30.29 in 10.0 mi NW 16.1 mph 19.6 mph N/A   Clear
3:55 PM 53.6 °F - 32.0 °F 44% 30.29 in 10.0 mi NW 15.0 mph 20.7 mph N/A   Clear
4:15 PM 53.6 °F - 32.0 °F 44% 30.29 in 10.0 mi NW 10.4 mph 17.3 mph N/A   Clear
4:35 PM 53.6 °F - 28.4 °F 38% 30.29 in 10.0 mi NNW 9.2 mph - N/A   Clear
4:55 PM 53.6 °F - 28.4 °F 38% 30.29 in 10.0 mi NW 11.5 mph - N/A   Clear
5:15 PM 53.6 °F - 28.4 °F 38% 30.29 in 10.0 mi NW 10.4 mph - N/A   Clear
5:35 PM 53.6 °F - 14.0 °F 21% 30.29 in 10.0 mi NNW 8.1 mph - N/A   Clear
5:55 PM 51.8 °F - 19.4 °F 28% 30.29 in 10.0 mi NW 9.2 mph - N/A   Clear
6:15 PM 51.8 °F - 15.8 °F 24% 30.30 in 10.0 mi NNW 5.8 mph - N/A   Clear
6:35 PM 50.0 °F - 17.6 °F 28% 30.30 in 10.0 mi NNW 6.9 mph - N/A   Clear
6:55 PM 50.0 °F - 19.4 °F 30% 30.30 in 10.0 mi NNW 5.8 mph - N/A   Clear
7:15 PM 50.0 °F - 19.4 °F 30% 30.31 in 10.0 mi NNW 4.6 mph - N/A   Clear
7:35 PM 48.2 °F - 24.8 °F 40% 30.31 in 10.0 mi North 4.6 mph - N/A   Clear
7:55 PM 48.2 °F - 24.8 °F 40% 30.31 in 10.0 mi North 4.6 mph - N/A   Clear
8:15 PM 46.4 °F 42.9 °F 24.8 °F 43% 30.32 in 10.0 mi North 6.9 mph - N/A   Clear
8:35 PM 46.4 °F 43.5 °F 26.6 °F 46% 30.32 in 10.0 mi North 5.8 mph - N/A   Clear
8:55 PM 46.4 °F 42.4 °F 26.6 °F 46% 30.33 in 10.0 mi North 8.1 mph - N/A   Clear
9:15 PM 44.6 °F 41.4 °F 26.6 °F 49% 30.33 in 10.0 mi NNE 5.8 mph - N/A   Clear
9:35 PM 44.6 °F 40.7 °F 26.6 °F 49% 30.34 in 10.0 mi NNE 6.9 mph - N/A   Clear
9:55 PM 44.6 °F 40.7 °F 26.6 °F 49% 30.34 in 10.0 mi NNE 6.9 mph - N/A   Clear
10:15 PM 42.8 °F 38.6 °F 26.6 °F 53% 30.35 in 10.0 mi NE 6.9 mph - N/A   Clear
10:35 PM 41.0 °F 37.1 °F 28.4 °F 61% 30.35 in 10.0 mi NE 5.8 mph - N/A   Clear
10:55 PM 41.0 °F 38.0 °F 28.4 °F 61% 30.36 in 10.0 mi NE 4.6 mph - N/A   Clear
11:15 PM 41.0 °F 37.1 °F 30.2 °F 65% 30.36 in 10.0 mi NE 5.8 mph - N/A   Clear
11:35 PM 41.0 °F 36.4 °F 32.0 °F 70% 30.36 in 10.0 mi NE 6.9 mph - N/A   Clear
11:55 PM 41.0 °F 35.8 °F 32.0 °F 70% 30.35 in 10.0 mi NE 8.1 mph - N/A   Clear